Home   Weather   Asuncion   Past weeks

Flag for Paraguay Past Weather in Asuncion, Paraguay — Yesterday and Last 2 Weeks

Now
73 °F

Passing clouds.


Feels Like: 72 °F
Forecast: 73 / 84 °F
Wind: 7 mph from East

Location: Asuncion / Aeropuerto

Current Time: Dec 9, 2016 at 10:11:11 pm

Latest Report: Dec 9, 2016 at 9:00 pm


Visibility: N/A

Pressure: 29.68 "Hg

Humidity: 89%

Dew Point: 70 °F

Location of AsuncionLocation

Past Weather in Asuncion — Graph

°F

Asuncion Temperature Yesterday

Maximum temperature yesterday: 77 °F (at 1:00 pm)
Minimum temperature yesterday: 70 °F (at 10:00 am)
Average temperature yesterday: 73 °F

High & Low Weather Summary for the Past Weeks

 TemperatureHumidityPressure
High97 °F (Nov 26, 2:00 pm)100% (Nov 27, 3:00 pm)30.01 "Hg (Nov 27, 3:00 pm)
Low68 °F (Nov 30, 4:00 am)41% (Dec 5, 5:00 pm)29.62 "Hg (Dec 9, 5:00 pm)
Average79 °F75%29.81 "Hg
* Reported Nov 24 9:00 pm — Dec 9 9:00 pm, Asuncion, Weather by CustomWeather, © 2016

Note: Actual official high and low records may vary slightly from our data, if they occured in-between our weather recording intervals... More about our weather records

Advertising

Asuncion Weather History for the Previous 24 Hours

Scroll right to see more
 ConditionsComfort  
Time TempWeatherWind HumidityBarometerVisibility
9:00 pm
Fri, Dec 9
73 °FPassing clouds.7 mph89%29.68 "HgN/A
8:00 pm75 °FPassing clouds.3 mph89%29.65 "HgN/A
7:00 pm77 °FPartly sunny.6 mph83%29.65 "HgN/A
6:00 pm81 °FPartly sunny.3 mph79%29.62 "HgN/A
5:00 pm79 °FPartly sunny.3 mph84%29.62 "HgN/A
4:00 pm79 °FOvercast.7 mph84%29.65 "HgN/A
3:00 pm79 °FOvercast.7 mph84%29.68 "HgN/A
2:00 pm79 °FPartly sunny.7 mph84%29.68 "HgN/A
1:00 pm77 °FMostly cloudy.6 mph89%29.71 "HgN/A
12:00 pm75 °FMostly cloudy.5 mph89%29.71 "HgN/A
11:00 am73 °FDrizzle. Mostly cloudy.3 mph94%29.71 "Hg3 mi
10:30 am73 °FDrizzle. Mostly cloudy.3 mph94%29.71 "Hg1 mi
10:00 am73 °FDrizzle. Mostly cloudy.2 mph94%29.71 "Hg4 mi
9:30 am73 °FRain. Overcast.3 mph89%29.74 "Hg1 mi
9:00 am75 °FMostly cloudy.3 mph83%29.74 "HgN/A
8:30 am75 °FBroken clouds.2 mph83%29.71 "HgN/A
8:00 am75 °FBroken clouds.5 mph83%29.71 "HgN/A
7:00 am73 °FBroken clouds.5 mph89%29.68 "HgN/A
6:00 am73 °FBroken clouds.5 mph89%29.68 "HgN/A
5:00 am73 °FPassing clouds.3 mph89%29.68 "HgN/A
4:00 am73 °FPassing clouds.5 mph89%29.68 "HgN/A
3:00 am73 °FPassing clouds.3 mph89%29.71 "HgN/A
2:00 am73 °FPassing clouds.5 mph89%29.71 "HgN/A
1:00 am73 °FPassing clouds.3 mph94%29.74 "HgN/A
12:00 am73 °FPassing clouds.5 mph94%29.77 "HgN/A
11:00 pm
Thu, Dec 8
73 °FPartly cloudy.3 mph94%29.77 "HgN/A
10:00 pm73 °FPassing clouds.2 mph94%29.77 "HgN/A
Weather by CustomWeather, © 2016

See weather overviewHow to use our weather pages